ONEWEB-0687, 61595

Orbit data source: Space-Track

ONEWEB-0687, 61595 is a payload satellite owned by Eut. One Web (UK) in LEO that was launched on Sun, 20 Oct 2024 UTC via an FALCON 9 launch vehicle from the Air Force Western Test Range (AFWTR). Payload-class satellites include a variety of spacecraft equipped with specific instruments for various scientific and technological missions. These include communications satellites like Starlink; space stations such as the ISS; scientific satellites like the Hubble; Earth observation satellites from companies like Planet Labs, Umbra, and HawkEye 360; GPS; miniature CubeSats for education and research; and military/defense satellites.

Loading next visibility...
Identifier
61595, 2024-188B
Orbit
LEO
Country
Flag of UKUK
Related business
Manufacturer
One Web
Mission
Operational Commercial Communications
Bus & Motor
ARROW, Unknown motor
Mass
148 kg wet, ~140 kg dry
Launch date (UTC)
2024-10-20 (2 years ago)
Launch vehicle
FALCON 9
Launch site
Air Force Western Test Range (AFWTR)
Object type
Payload
Rocket body
Debris
Shape & HBR
Trap Box + 2 Pan, 6.7 m
Radar Cross Section
3.464 m², Large (>1 m²)

Expand to show TLE details & history
Last TLE update: 8 hours ago

TLE from 8 hours ago
0 ONEWEB-0687
1 61595U 24188B   26208.32507894  .00000082  00000-0  17730-3 0  9996
2 61595  87.9156 357.8917 0001625  79.6471 280.4844 13.17648506 91182
Epoch: 2026-07-27T07:48Z
TLE epoch observation values (Epoch: 2026-07-27T07:48:06.820Z)
Latitude
0.00002°
Longitude
-64.14699°
Altitude
1,196.39 km
Speed
7.256 km/s
True Right ascension
23h 51m 34s
True Declination
0° 00' 00"
Sunlit
Object was in full shadow at epoch
Visualization orbit readout
Latitude
Unknown
Longitude
Unknown
Altitude
Unknown
Speed
Unknown
Apparent Right ascension
Unknown
Apparent Declination
Unknown
Sunlit
N/A
Visualization observer readout
Local Sidereal Time
05:38:59
Azimuth
Unknown
Elevation
Unknown
Doppler factor
Unknown
Orbital elements
Apogee altitude
1,192.054 km
Perigee altitude
1,189.594 km
Semi-major axis
7,568.961 km
Eccentricity
0.00016
Inclination
87.9156°
RAAN
357.8917°
Arg. of periapsis
79.6471°
True anomaly
280.46609°
Mean anomaly
280.4844°
Eccentric anomaly
280.47524°
Mean motion
3.29601 °/min
Orbital period
109.22 mins
BSTAR
0.0001773
Loading maneuver chart data...
Computing Atmospheric mass density...
Loading historical data...
Loading historical data...
Loading historical data...
Loading historical data...
Loading historical data...
Loading historical data...
Loading historical data...

Documentation

Showing up to 5 results
|